Location: McFarlands Corners
(41.4117°N, 81.3382°W)
Time: 14:26:20
(UTC+00:00)

Explorer 7 - Pass Details

Date: 25 February 2026
Orbit: 430 x 541 km, 50.2° (Epoch: 12 March)

Event Time Altitude Azimuth Distance (km) Brightness Sun altitude
Rises 21:26:18 0° 303° (WNW) 2,447 10.5 17.6°
Reaches altitude 10° 21:28:40 10° 317° (NW) 1,592 9.4 17.2°
Maximum altitude 21:31:42 25° 15° (NNE) 971 7.8 16.7°
Drops below altitude 10° 21:34:50 10° 73° (ENE) 1,642 8.7 16.2°
Sets 21:37:18 0° 87° (E) 2,544 9.7 15.8°
